Header for Extended Forecast Station List Page

Search by: ID | Name | Date | Parm | Value | Avg | % Avg
Sort by: ID | Name | Date | Parm | Value | Avg | % Avg

Enter search or view all records.

Click on id for station plot
#IDNameDateParmValueAvg% Avg
0WGCM8MF FLATHEAD-NEAR WEST GLACIER12-05-2022DISCHARGE (KAF)4216925
1CHDW1CHELAN-LAKE CHELAN DAM12-05-2022INFLOW (KAF)6420931
2NACW1NACHES-NEAR NACHES12-05-2022DISCHARGE (KAF)5918831
3SATI1ST MARIES-NEAR SANTA12-05-2022DISCHARGE (KAF)278134
4STRM8ST. REGIS-NEAR ST. REGIS12-05-2022DISCHARGE (KAF)195435
5HOTI1BRUNEAU-NEAR HOT SPRINGS12-05-2022DISCHARGE (KAF)153839
6LAUW1KETTLE-AT LAURIER12-05-2022DISCHARGE (KAF)7117840
7PESW1WENATCHEE-AT PESHASTIN12-05-2022DISCHARGE (KAF)14934743
8CLFW1NACHES-NEAR CLIFFDEL12-05-2022DISCHARGE (KAF)5913543
9RIDI1WILLOW CREEK-RIRIE DAM12-05-2022INFLOW (KAF)61543
10MONO3NF JOHN DAY-AT MONUMENT12-05-2022DISCHARGE (KAF)11726544
11CLUW1CLE ELUM-CLE ELUM LAKE12-05-2022INFLOW (KAF)5311845
12ORFI1CLEARWATER-AT OROFINO12-05-2022DISCHARGE (KAF)510110746
13BUDW1BUMPING-BUMPING LAKE DAM12-05-2022INFLOW (KAF)194047
14SERO3JOHN DAY-AT SERVICE CK12-05-2022DISCHARGE (KAF)19741548
15HHWM8SF FLATHEAD-HUNGRY HORSE DAM12-05-2022INFLOW (KAF)13026749
16WRMO3MALHEUR-WARM SPRINGS DAM12-05-2022INFLOW (KAF)244750
17PRTI1PRIEST-NEAR PRIEST RIVER12-05-2022DISCHARGE (KAF)12825251
18ARDW1ENTIAT-NEAR ARDENVOIR12-05-2022DISCHARGE (KAF)142751
19LWRI1LITTLE WOOD-LITTLE WOOD DAM12-05-2022INFLOW (KAF)91752
20TRYO3GRANDE RONDE-TROY12-05-2022DISCHARGE (KAF)28855952
21SPOW1SPOKANE-AT SPOKANE12-05-2022DISCHARGE (KAF)756142153
22RILW1TIETON-RIMROCK LAKE NEAR RIMROCK12-05-2022INFLOW (KAF)457857
23KIOW1YAKIMA-AT KIONA12-05-2022DISCHARGE (KAF)49285557
24SPDI1CLEARWATER-AT SPALDING12-05-2022DISCHARGE (KAF)1179207257
25EASW1YAKIMA-AT EASTON12-05-2022DISCHARGE (KAF)488458
26TONW1OKANOGAN-NEAR TONASKET12-05-2022DISCHARGE (KAF)19032159
27PARW1YAKIMA-NEAR PARKER12-05-2022DISCHARGE (KAF)35059259
28FCFM8NF FLATHEAD-NEAR COLUMBIA FALLS12-05-2022DISCHARGE (KAF)11218760
29CSDI1NF PAYETTE-CASCADE DAM12-05-2022INFLOW (KAF)6811560
30LLKW1SPOKANE-AT LONGLAKE12-05-2022INFLOW (KAF)1059170262
31KADW1KACHESS-KACHESS DAM12-05-2022INFLOW (KAF)325262
32COEI1COEUR D ALENE-COEUR D ALENE LAKE12-05-2022INFLOW (KAF)835132663
33KEDW1YAKIMA-KEECHELUS LAKE12-05-2022INFLOW (KAF)345363
34UMTW1YAKIMA-AT UMTANUM12-05-2022DISCHARGE (KAF)22635863
35BERO3MALHEUR-AGENCY VALLEY DAM12-05-2022INFLOW (KAF)172664
36MODO3DESCHUTES-AT MOODY NR BIGGS12-05-2022DISCHARGE (KAF)936143265
37KERM8FLATHEAD-SELI’Š KSANKA QLISPE’ DAM12-05-2022INFLOW (KAF)955144666
38DWRI1NF CLEARWATER-DWORSHAK DAM12-05-2022INFLOW (KAF)57988066
39PATW1METHOW-NEAR PATEROS12-05-2022DISCHARGE (KAF)7511267
40JLKW4SNAKE-JACKSON LAKE AT DAM12-05-2022INFLOW (KAF)7911768
41DEDI1DEADWOOD-NEAR LOWMAN12-05-2022INFLOW (KAF)132068
42LGDW1SNAKE-LOWER GRANITE DAM12-05-2022INFLOW (KAF)5502805068
43LGSW1SNAKE-LITTLE GOOSE DAM12-05-2022INFLOW (KAF)5502809068
44SRGM8CLARK FORK-AT ST REGIS12-05-2022DISCHARGE (KAF)54577870
45PIHI1PORTNEUF-AT POCATELLO12-05-2022DISCHARGE (KAF)415772
46LMNW1SNAKE-LOWER MONUMENTAL DAM12-05-2022INFLOW (KAF)5972824572
47IHDW1SNAKE-ICE HARBOR DAM12-05-2022INFLOW (KAF)5972827572
48LYDM8KOOTENAI-LIBBY DAM12-05-2022INFLOW (KAF)61384173
49ALFW1PEND OREILLE-ALBENI FALLS DAM12-05-2022INFLOW (KAF)3022412773
50TNAW1TEANAWAY-BELOW FORKS12-05-2022DISCHARGE (KAF)476473
51TEAI1TETON-NEAR ST. ANTHONY12-05-2022DISCHARGE (KAF)729973
52CABI1CLARK FORK-CABINET GORGE DAM12-05-2022INFLOW (KAF)2685361474
53ANAW1SNAKE-NEAR ANATONE12-05-2022DISCHARGE (KAF)4322581674
54LEOI1KOOTENAI-AT LEONIA12-05-2022DISCHARGE (KAF)1720227576
55IPDI1HENRYS FORK-ISLAND PARK DAM12-05-2022INFLOW (KAF)8010576
56ALPW4SNAKE-NEAR ALPINE12-05-2022DISCHARGE (KAF)28637776
57HALI1BIG WOOD-AT HAILEY12-05-2022DISCHARGE (KAF)304076
58MAGI1BIG WOOD-MAGIC DAM12-05-2022INFLOW (KAF)273676
59BONM8BLACKFOOT-NEAR BONNER12-05-2022DISCHARGE (KAF)11414777
60BITM8BITTERROOT-NEAR MISSOULA12-05-2022DISCHARGE (KAF)16821777
61BELM8CLARK FORK-BELOW MISSOULA12-05-2022DISCHARGE (KAF)44157677
62NOXM8CLARK FORK-NOXON RAPIDS DAM12-05-2022INFLOW (KAF)2428314577
63PLDI1SF SNAKE-PALISADES DAM12-05-2022INFLOW (KAF)45459177
64WHBI1SALMON-AT WHITEBIRD12-05-2022DISCHARGE (KAF)853111577
65BONO3COLUMBIA-BONNEVILLE DAM12-05-2022INFLOW (KAF)300633920177
66GCDW1COLUMBIA-GRAND COULEE DAM12-05-2022INFLOW (KAF)168372163478
67REXI1HENRYS FORK-AT REXBURG12-05-2022DISCHARGE (KAF)34343778
68MACI1BIG LOST-MACKAY RESERVOIR NEAR MACKAY12-05-2022INFLOW (KAF)303878
69TDAO3COLUMBIA-THE DALLES DAM12-05-2022INFLOW (KAF)292243738478
70CIBW1COLUMBIA-AT INTL BOUNDARY12-05-2022DISCHARGE (KAF)156441970379
71ANTI1HENRYS FORK-AT ST. ANTHONY12-05-2022DISCHARGE (KAF)30238179
72JKSW4SNAKE-NEAR JACKSON12-05-2022DISCHARGE (KAF)25031679
73MCDW1COLUMBIA-MCNARY DAM12-05-2022INFLOW (KAF)276033499479
74JDAO3COLUMBIA-JOHN DAY DAM12-05-2022INFLOW (KAF)291133672679
75EMMI1PAYETTE-NEAR EMMETT12-05-2022DISCHARGE (KAF)31239080
76ABOM8CLARK FORK-ABOVE MISSOULA12-05-2022DISCHARGE (KAF)28434782
77WANW1COLUMBIA-WANAPUM DAM12-05-2022INFLOW (KAF)209952554582
78PRWW1COLUMBIA-PRIEST RAPIDS DAM12-05-2022INFLOW (KAF)209932562182
79TCHW1WALLA WALLA-NEAR TOUCHET12-05-2022DISCHARGE (KAF)17020682
80DLGM8CLARK FORK-AT DEER LODGE12-05-2022DISCHARGE (KAF)435283
81WELW1COLUMBIA-WELLS DAM12-05-2022INFLOW (KAF)206042452484
82RRHW1COLUMBIA-ROCKY REACH DAM12-05-2022INFLOW (KAF)208462492784
83UNDW1WHITE SALMON-NEAR UNDERWOOD12-05-2022DISCHARGE (KAF)24529384
84CHJW1COLUMBIA-CHIEF JOSEPH DAM12-05-2022INFLOW (KAF)203402386685
85ARAI1SF BOISE-ANDERSON RANCH DAM12-05-2022INFLOW (KAF)819585
86PITW1KLICKITAT-NEAR PITT12-05-2022DISCHARGE (KAF)33238985
87UMAO3UMATILLA-NEAR UMATILLA12-05-2022DISCHARGE (KAF)12714687
88CFMM8FLATHEAD-AT COLUMBIA FALLS12-05-2022DISCHARGE (KAF)86097888
89DRMM8CLARK FORK-NR DRUMMOND12-05-2022DISCHARGE (KAF)11212888
90CHEI1FALL RIVER-NEAR CHESTER12-05-2022DISCHARGE (KAF)9911388
91MILI1SNAKE-AT MILNER12-05-2022DISCHARGE (KAF)485488
92PDTO3UMATILLA-AT PENDLETON12-05-2022DISCHARGE (KAF)13415388
93HWRI1BIG LOST-AT HOWELL RANCH NEAR CHILLY12-05-2022DISCHARGE (KAF)171891
94LUCI1BOISE-LUCKY PEAK DAM12-05-2022INFLOW (KAF)20122191
95GIBO3UMATILLA-NEAR GIBBON12-05-2022DISCHARGE (KAF)546091
96SWAI1SNAKE-BELOW SWAN FALLS12-05-2022DISCHARGE (KAF)1760187794
97SHYI1SNAKE-NEAR SHELLEY12-05-2022DISCHARGE (KAF)64868595
98WEII1SNAKE-AT WEISER12-05-2022DISCHARGE (KAF)2870302795
99BRNI1SNAKE-BROWNLEE DAM12-05-2022INFLOW (KAF)3108327795
100SNAI1SNAKE-AT BLACKFOOT12-05-2022DISCHARGE (KAF)57759996
101SIFI1SNAKE-AB EAGLE ROCK NR IDAHO FALLS12-05-2022DISCHARGE (KAF)67468299
102BFTI1SNAKE-NEAR BLACKFOOT12-05-2022DISCHARGE (KAF)57858699
103WSRI1WEISER-NEAR WEISER12-05-2022DISCHARGE (KAF)21021299
104AFRI1SNAKE-AMERICAN FALLS RESERVOIR12-05-2022INFLOW (KAF)12131211100
105OWYO3OWYHEE-OWYHEE DAM12-05-2022INFLOW (KAF)174171101
106RCCM8ROCK CREEK-NEAR CLINTON12-05-2022DISCHARGE (KAF)4847102
107MYKO3MCKAY CREEK-NEAR PILOT ROCK12-05-2022DISCHARGE (KAF)4138110
108HODO3HOOD-NEAR TUCKER BRIDGE12-05-2022DISCHARGE (KAF)279252111
109HEII1SNAKE-NEAR HEISE12-05-2022DISCHARGE (KAF)509395129
110PARI1BOISE-NEAR PARMA12-05-2022DISCHARGE (KAF)273199137
111BIGI1BOISE-AT GLENWOOD BRIDGE12-05-2022DISCHARGE (KAF)13466204
112BULO3BULLY CREEK-BULLY CREEK DAM12-05-2022INFLOW (KAF)215414
113BFEI1KOOTENAI-AT BONNERS FERRY12-05-2022STAGE (FT)MMM
114HOPI1PEND OREILLE-PEND OREILLE LAKE NR HOPE12-05-2022LAKE ELEVATION (FT)MMM
115SJMI1ST JOE-AT ST MARIES12-05-2022STAGE (FT)MMM